Weather History for St. Louis, MO

Change the Weather History Date:

Thursday, January 30, 2014

  Actual Average Record
Temperature  
Mean Temperature 36 °F 33 °F  
Max Temperature 47 °F 41 °F 67 °F (2012)
Min Temperature 25 °F 24 °F -9 °F (1936)
Degree Days  
Heating Degree Days 29 32  
Month to date heating degree days 1123 996  
Since 1 July heating degree days 2963 2761  
Cooling Degree Days 0 0  
Month to date cooling degree days 0 0  
Year to date cooling degree days 0 0  
Moisture  
Dew Point 8 °F    
Average Humidity 34    
Maximum Humidity 50    
Minimum Humidity 17    
Precipitation  
Precipitation 0.00 in 0.07 in 2.47 in (1916)
Month to date precipitation 1.67 2.32  
Year to date precipitation 1.67 2.32  
Snow  
Snow 0.00 in 0.20 in 5.00 in (1982)
Month to date snowfall 15.8 5.4  
Since 1 July snowfall 21.4 10.5  
Snow Depth 0.00 in    
Sea Level Pressure  
Sea Level Pressure 29.95 in    
Wind  
Wind Speed 13 mph (South)    
Max Wind Speed 29 mph    
Max Gust Speed 38 mph    
Visibility 10 miles    
Events      
T = Trace of Precipitation, MM = Missing Value Source: NWS Daily Summary

Daily Weather History Graph

Daily Weather History Graph

Search for Another Location

Airport:

Trip Planner

Search our weather history database for the weather conditions in past years. The results will help you decide how hot, cold, wet, or windy it might be!

Date:

Astronomy

Jan. 30, 2014 Rise Set
Actual Time 7:09 AM CST 5:20 PM CST
Civil Twilight 6:40 AM CST 5:49 PM CST
Nautical Twilight 6:09 AM CST 6:21 PM CST
Astronomical Twilight 5:37 AM CST 6:52 PM CST
Moon 6:35 AM CST (1/30) 5:32 PM CST (1/30)
Length of Visible Light 11h 08m
Length of Day
10h 11m
Waning Crescent, 0% of the Moon is Illuminated
Jan 30
Waning Crescent
Jan 30
New
Feb 6
First Quarter
Feb 14
Full
Feb 22
Last Quarter

Hourly Weather History & Observations

Time (CST) Temp. Windchill Dew Point Humidity Pressure Visibility Wind Dir Wind Speed Gust Speed Precip Events Conditions
12:51 AM 27.0 °F 17.3 °F 6.1 °F 41% 30.11 in 10.0 mi South 10.4 mph - N/A   Clear
1:51 AM 26.1 °F 17.6 °F 7.0 °F 44% 30.10 in 10.0 mi South 8.1 mph - N/A   Clear
2:51 AM 25.0 °F 16.3 °F 7.0 °F 46% 30.08 in 10.0 mi South 8.1 mph - N/A   Clear
3:51 AM 25.0 °F 16.3 °F 8.1 °F 49% 30.06 in 10.0 mi SSE 8.1 mph - N/A   Scattered Clouds
4:51 AM 25.0 °F 14.8 °F 8.1 °F 49% 30.04 in 10.0 mi SSE 10.4 mph - N/A   Mostly Cloudy
5:51 AM 26.1 °F 15.6 °F 8.1 °F 47% 30.04 in 10.0 mi South 11.5 mph - N/A   Overcast
6:51 AM 27.0 °F 15.6 °F 9.0 °F 47% 30.00 in 10.0 mi South 13.8 mph 21.9 mph N/A   Mostly Cloudy
7:51 AM 28.0 °F 16.1 °F 9.0 °F 45% 29.99 in 10.0 mi South 16.1 mph 24.2 mph N/A   Mostly Cloudy
8:51 AM 30.0 °F 17.9 °F 9.0 °F 41% 29.94 in 10.0 mi South 18.4 mph 26.5 mph N/A   Mostly Cloudy
9:51 AM 34.0 °F 23.8 °F 9.0 °F 35% 29.91 in 10.0 mi South 16.1 mph 25.3 mph N/A   Mostly Cloudy
10:51 AM 39.0 °F 28.5 °F 7.0 °F 27% 29.88 in 10.0 mi South 23.0 mph 31.1 mph N/A   Overcast
11:51 AM 44.1 °F 35.7 °F 5.0 °F 20% 29.84 in 10.0 mi South 20.7 mph 33.4 mph N/A   Overcast
12:51 PM 45.0 °F 37.6 °F 3.0 °F 18% 29.81 in 10.0 mi SSW 17.3 mph 29.9 mph N/A   Overcast
1:51 PM 46.0 °F 38.3 °F 5.0 °F 19% 29.80 in 10.0 mi SSW 20.7 mph 29.9 mph N/A   Overcast
2:51 PM 46.0 °F 39.3 °F 7.0 °F 20% 29.83 in 10.0 mi SSW 16.1 mph 23.0 mph N/A   Overcast
3:51 PM 46.0 °F 39.3 °F 9.0 °F 22% 29.86 in 10.0 mi SW 16.1 mph 23.0 mph N/A   Overcast
4:51 PM 45.0 °F 38.9 °F 10.0 °F 24% 29.87 in 10.0 mi SSW 12.7 mph - N/A   Overcast
5:51 PM 43.0 °F 36.8 °F 10.0 °F 26% 29.90 in 10.0 mi SSW 11.5 mph - N/A   Mostly Cloudy
6:51 PM 42.1 °F 36.6 °F 10.0 °F 27% 29.92 in 10.0 mi South 9.2 mph - N/A   Mostly Cloudy
7:51 PM 39.9 °F 33.9 °F 10.0 °F 29% 29.94 in 10.0 mi South 9.2 mph - N/A   Mostly Cloudy
8:51 PM 39.0 °F 32.3 °F 10.9 °F 32% 29.96 in 10.0 mi South 10.4 mph - N/A   Overcast
9:51 PM 37.9 °F 33.5 °F 10.9 °F 33% 29.98 in 10.0 mi SW 5.8 mph - N/A   Overcast
10:51 PM 37.0 °F 32.4 °F 12.0 °F 36% 29.98 in 10.0 mi SW 5.8 mph - N/A   Mostly Cloudy
11:51 PM 37.9 °F 32.1 °F 12.0 °F 35% 29.97 in 10.0 mi SSW 8.1 mph - N/A   Overcast